Wind_Speed
95 93 93 94 92 87 85 84 82 76 69 63 65 68 68 65 59 54 50 46 43 42 41 42 39 35 34 33 32 31 29 27 25 23 23 23 24 25 26 28 30 31 32 33 34 35 35 37 39 41 42 43 44 44 44 43 41 39 39 40 42 44 47 49 51 52 52 52 53 54 54 54 54 54 53 53 53 53 54 54 55 56 57 59 61
98 96 95 95 94 87 83 82 83 83 79 69 61 61 65 69 68 61 54 48 45 43 41 42 42 38 36 33 30 28 27 25 23 22 22 23 23 24 26 27 29 31 32 33 34 35 37 39 41 42 43 44 45 45 43 42 41 40 41 43 45 47 50 51 51 52 52 53 53 54 54 53 53 53 53 53 53 54 54 55 56 58 59 61 62
100 98 97 97 96 90 85 83 83 84 85 80 69 59 56 62 67 63 57 50 45 41 38 37 36 34 32 29 27 25 24 24 23 23 23 24 25 26 28 29 31 32 33 35 35 36 39 41 42 43 44 45 45 44 42 42 41 42 44 46 48 50 50 51 51 52 53 53 53 53 52 53 53 53 53 53 53 54 55 56 58 60 61 62 63
102 101 98 97 97 93 88 85 84 84 84 84 79 67 57 55 58 54 48 44 40 37 34 32 30 29 28 26 25 25 25 25 25 25 25 26 27 29 30 31 32 33 35 36 36 38 40 42 42 43 44 45 44 43 43 42 43 44 46 48 49 50 50 51 52 53 53 53 52 52 52 52 52 52 52 53 54 55 56 58 59 61 62 62 62
101 102 100 98 96 94 90 88 86 85 83 81 80 74 64 56 52 46 40 38 37 35 33 31 28 27 27 26 26 26 26 26 27 27 28 29 30 31 31 32 33 35 37 37 37 39 41 42 43 44 44 44 44 43 43 43 44 46 48 49 49 50 51 52 52 53 53 52 51 51 52 52 51 52 53 54 55 56 58 59 60 61 62 62 63
93 99 100 99 96 93 90 89 88 86 84 81 78 74 68 61 53 47 41 38 36 34 34 32 30 29 29 28 27 27 27 28 28 29 30 30 31 31 32 33 34 36 38 38 39 41 42 43 43 43 44 44 43 43 43 44 46 48 49 50 50 51 51 52 52 52 52 51 51 52 51 51 51 52 53 55 56 58 59 59 60 61 62 63 64
82 89 95 97 96 94 90 88 87 86 84 82 77 72 69 64 59 55 49 43 39 35 33 32 31 31 31 29 29 29 29 30 30 30 31 31 31 32 33 34 36 37 39 40 41 42 42 43 43 43 43 44 44 44 44 46 48 49 50 50 50 51 51 52 52 52 51 51 51 51 51 51 52 53 54 56 57 59 59 60 60 61 63 64 65
73 78 85 91 94 93 90 87 86 87 85 82 77 73 69 66 65 63 55 47 44 41 36 34 32 32 31 30 29 30 30 31 31 30 31 31 32 34 35 36 37 38 39 41 41 42 43 43 43 44 44 44 44 45 47 48 49 49 50 50 50 51 52 52 52 52 52 52 51 51 51 52 53 54 55 57 58 59 60 60 61 62 63 64 65
67 69 73 81 87 89 89 87 85 85 85 82 77 72 68 64 63 61 54 48 48 46 42 38 36 34 33 31 30 31 31 31 31 31 31 32 33 35 36 37 38 39 40 41 42 43 43 44 44 45 44 44 45 46 48 49 49 49 50 50 51 52 53 52 53 53 52 51 51 51 52 52 54 55 57 58 59 60 60 61 62 63 64 64 65
62 62 62 68 77 83 85 85 84 83 83 82 75 69 65 62 57 52 48 47 48 48 44 41 39 37 35 33 33 32 32 32 32 32 32 33 34 35 37 38 39 40 41 43 44 44 44 44 45 45 44 45 45 46 48 49 49 50 51 52 53 53 53 53 53 53 52 51 51 52 52 54 56 57 58 58 60 61 61 61 62 63 64 64 65
55 55 55 58 66 75 80 81 82 81 80 79 74 66 62 58 52 46 44 45 46 46 44 42 40 37 36 35 34 33 33 33 33 33 34 35 36 37 38 39 40 41 43 44 45 45 45 45 45 45 45 45 45 47 48 49 50 51 53 54 54 53 54 54 53 52 52 52 52 53 54 56 57 58 57 58 59 60 61 62 63 63 63 63 65
48 49 50 52 57 66 74 76 78 78 77 76 72 64 59 56 50 45 42 42 41 42 41 40 39 37 36 35 34 33 33 33 33 34 35 36 37 38 39 40 41 43 44 45 46 46 46 45 45 45 45 45 46 47 48 50 52 53 54 54 54 54 54 54 53 52 52 53 54 55 56 57 57 57 57 57 59 60 62 63 63 63 63 63 65
41 43 46 48 51 60 68 71 72 73 72 71 68 62 58 55 51 47 44 41 40 39 38 37 37 36 36 35 34 34 34 34 35 36 37 38 38 39 39 41 42 44 45 45 46 46 46 45 45 45 45 45 46 47 50 52 54 55 55 54 55 55 54 53 52 52 54 55 56 56 57 57 57 57 57 58 60 61 63 63 63 63 63 64 66
37 40 43 45 50 58 63 64 65 67 67 66 63 59 56 55 52 49 46 43 40 39 38 37 37 36 35 35 35 35 36 36 37 38 38 38 39 39 41 42 44 45 45 46 46 46 45 45 45 45 45 46 47 49 52 54 55 54 54 54 54 54 53 53 53 54 56 57 57 57 58 58 58 58 58 60 61 62 63 63 63 63 63 65 67
35 37 40 44 50 56 58 58 60 62 61 60 57 56 55 54 52 49 47 45 43 41 39 38 37 37 36 36 36 37 38 38 39 39 39 39 39 41 42 44 45 45 46 46 46 45 45 45 45 46 47 48 49 51 53 54 54 54 54 53 53 53 53 53 55 57 58 59 58 58 58 58 58 58 59 60 62 64 64 63 63 63 65 67 68
32 35 38 43 49 53 55 57 58 56 55 54 54 53 52 52 50 48 46 44 42 40 39 39 38 37 37 37 37 38 39 39 39 39 39 39 41 42 44 45 45 46 46 46 45 44 45 45 46 47 49 50 51 52 53 54 53 53 52 52 52 52 53 54 56 58 59 59 58 59 59 59 59 60 61 62 63 64 63 62 63 64 66 68 69
27 31 35 42 50 54 55 56 55 52 51 51 51 49 49 49 47 45 43 41 39 39 38 38 37 37 37 37 38 39 39 39 38 39 39 41 42 44 45 45 45 45 45 44 44 44 45 47 48 49 50 50 51 52 53 53 52 52 52 52 53 53 54 55 58 59 58 58 59 60 61 62 62 62 63 63 64 63 62 62 63 65 67 68 69
28 32 38 43 48 52 53 52 51 50 50 49 48 47 47 46 43 42 40 39 38 38 38 37 37 37 37 38 38 39 38 38 38 40 41 42 43 44 44 44 43 43 43 43 44 45 47 49 49 50 50 51 52 52 52 52 53 53 54 55 55 55 56 58 59 59 59 60 61 63 64 64 64 64 64 63 63 63 62 63 64 66 68 69 68
34 38 42 45 47 48 49 49 48 48 47 46 46 46 44 42 40 40 39 39 39 38 38 38 38 38 38 38 38 37 38 38 39 41 42 42 42 43 43 42 42 42 43 44 46 47 49 49 49 49 50 51 52 53 54 54 55 56 56 57 57 57 59 60 60 60 60 61 63 64 65 65 64 64 64 64 63 63 63 64 65 67 69 69 67
38 40 42 44 45 46 46 46 45 45 44 43 43 42 40 39 39 39 39 38 38 38 38 38 38 38 38 37 37 37 37 39 40 41 42 42 42 42 42 42 42 43 45 47 48 49 48 48 49 49 50 52 54 55 56 56 57 58 58 58 59 60 61 61 61 60 61 62 63 64 65 65 65 65 65 64 64 64 64 65 67 68 69 68 66
35 38 40 42 42 43 43 43 42 41 40 39 39 38 38 38 39 38 38 38 38 38 38 38 38 37 37 37 36 37 38 40 41 42 42 42 41 41 42 42 43 45 47 48 48 47 47 48 49 51 52 53 55 55 56 56 57 58 58 59 59 60 61 60 60 60 61 62 64 65 66 66 66 66 65 64 64 65 65 66 68 69 68 66 64
31 34 36 38 40 40 40 40 39 38 37 37 37 37 37 37 37 37 37 37 37 37 37 37 37 37 37 37 37 38 40 42 43 43 42 42 41 41 42 44 45 46 47 47 46 46 47 48 49 51 52 53 53 54 55 56 56 57 58 59 59 60 61 61 62 62 63 64 65 66 67 68 68 67 66 65 65 65 66 67 68 68 67 65 64
28 30 32 34 36 37 38 38 38 38 38 38 37 37 37 37 37 37 36 36 36 36 36 37 37 37 37 37 38 40 42 43 44 43 43 42 42 43 43 44 45 45 45 45 45 46 46 47 48 49 51 51 51 52 53 53 54 55 57 59 60 61 62 64 64 64 65 66 66 67 68 69 69 67 66 65 65 65 66 67 68 67 66 64 63
27 29 31 33 34 36 37 37 37 37 37 36 36 35 36 36 36 36 36 36 36 36 37 37 38 38 38 39 40 42 43 44 44 43 43 43 43 43 43 42 42 42 42 43 43 43 43 44 45 46 46 47 47 48 50 51 53 54 56 58 60 61 62 64 65 65 66 66 67 68 69 69 68 67 66 65 65 66 67 67 66 66 65 63 62
26 29 31 32 33 35 35 36 36 36 36 35 35 36 36 36 37 37 37 37 37 37 38 38 38 39 40 41 42 43 43 43 42 42 43 44 43 41 40 39 39 38 38 38 37 38 39 40 41 42 43 44 46 47 49 50 52 54 56 58 61 63 63 65 66 66 66 66 67 67 68 68 68 67 66 66 66 66 66 66 65 65 64 62 61
23 26 28 30 31 33 33 34 35 35 36 36 36 37 37 37 37 38 38 37 37 38 39 39 40 41 42 42 42 42 42 42 41 41 42 41 39 38 37 36 34 32 32 32 33 34 36 38 40 41 43 45 47 49 50 52 54 57 58 60 62 64 65 65 66 67 66 66 66 66 67 68 67 67 66 66 66 66 66 65 65 63 62 61 59
23 25 27 28 30 31 32 33 34 34 35 35 35 36 36 36 36 37 37 37 38 39 40 41 42 42 42 42 41 41 41 40 38 38 38 37 36 35 33 30 28 27 27 28 31 33 35 37 40 42 44 47 49 51 53 55 58 59 61 63 65 65 66 67 68 68 67 66 65 66 67 67 67 67 66 65 65 66 66 65 64 62 61 59 57
23 25 27 28 29 30 31 33 33 34 35 35 35 36 36 36 37 38 38 39 40 41 41 41 41 40 40 39 39 38 37 35 35 36 36 34 32 30 28 26 25 25 26 28 31 34 35 37 40 42 45 48 51 54 56 58 60 62 64 66 67 68 68 68 68 68 67 65 65 65 66 66 66 66 65 64 65 65 65 64 63 61 60 57 55
22 23 25 26 27 29 30 31 32 33 34 35 35 36 36 37 37 38 38 38 39 39 38 38 37 37 37 36 36 35 33 33 34 35 32 29 27 26 25 24 25 27 29 31 33 35 37 38 40 43 47 50 53 55 57 59 62 64 65 67 69 69 68 67 68 67 65 64 64 64 64 65 64 63 63 64 64 65 64 63 62 60 58 56 55
21 23 23 24 26 27 28 29 30 31 32 33 33 34 35 35 35 35 35 35 35 36 35 35 35 35 35 34 34 34 33 33 33 32 28 26 25 24 24 25 28 31 33 35 36 38 39 40 42 45 48 51 54 56 58 60 63 64 66 67 69 69 68 68 67 66 65 64 63 62 61 61 61 62 63 64 64 64 63 63 61 58 56 55 54
22 23 24 25 27 28 29 29 30 31 31 31 32 33 33 33 33 33 33 33 34 34 34 34 35 35 34 34 35 34 33 33 32 29 27 25 24 23 25 27 30 33 35 37 38 39 41 43 45 47 50 53 55 57 59 62 63 64 66 68 68 67 67 68 67 66 65 63 61 59 59 60 62 63 63 63 63 63 62 60 58 56 55 54 53
24 25 26 27 28 28 29 29 30 30 30 31 31 31 31 31 31 32 33 34 35 35 35 35 36 36 35 35 36 35 34 32 30 28 26 25 25 26 28 29 31 33 35 37 38 40 41 44 47 49 51 54 56 58 61 63 64 65 66 66 66 66 66 66 66 66 65 62 59 59 60 61 62 62 62 62 62 61 59 57 56 55 53 52 52
27 27 28 29 29 29 29 30 30 30 31 31 32 32 32 33 33 34 36 37 37 37 37 37 37 37 37 37 36 35 34 32 30 28 27 27 27 28 29 31 32 34 36 37 39 40 42 45 47 50 52 54 56 59 61 63 64 64 64 64 63 64 64 64 64 64 62 59 58 57 57 58 59 59 60 60 59 57 55 55 54 53 52 52 52
29 30 30 30 30 31 31 31 32 33 33 34 34 35 35 36 37 39 40 39 38 38 38 38 39 39 38 38 36 36 35 33 31 29 29 29 30 30 31 32 34 36 38 39 40 41 43 46 48 50 53 55 57 59 61 63 63 63 62 61 61 61 60 60 60 59 57 54 53 53 54 56 57 57 57 57 56 54 53 52 52 51 52 52 52
33 34 34 34 34 34 34 34 35 36 36 37 38 38 39 40 41 41 41 40 39 39 39 39 40 39 38 38 37 37 36 34 32 31 31 31 32 32 32 34 36 39 40 41 42 43 45 47 50 52 54 55 57 59 61 62 63 61 60 58 57 57 56 55 55 55 53 52 51 52 53 54 55 56 56 55 54 53 51 50 51 51 52 52 51
37 37 38 37 37 37 38 39 39 40 40 41 42 42 43 43 42 41 41 40 40 39 39 40 40 40 39 39 39 39 38 36 34 33 33 33 33 34 34 36 39 41 42 43 44 45 47 49 51 53 54 56 58 60 61 62 62 59 57 56 54 53 53 52 52 52 52 51 51 52 52 53 54 54 54 54 54 52 51 51 51 52 51 50 49
39 40 41 41 41 42 42 42 43 43 43 44 43 43 43 42 41 41 41 40 40 40 41 41 41 40 39 39 41 41 39 37 36 35 34 35 36 36 37 39 41 43 44 46 47 48 49 51 52 53 55 56 58 60 62 62 61 59 56 54 52 51 50 50 50 51 52 51 51 51 51 52 53 53 53 53 53 52 51 50 50 49 48 47 46
42 42 43 43 44 44 45 44 44 45 45 44 44 43 43 42 42 42 42 41 41 41 42 42 41 40 40 41 43 43 41 39 38 37 37 38 38 38 39 41 43 45 47 48 49 50 51 52 53 54 55 56 58 60 62 63 61 58 55 52 50 49 49 48 49 50 51 50 50 50 50 51 52 52 52 51 50 49 48 48 46 45 45 44 43
44 44 45 45 46 46 46 45 46 46 45 45 44 44 44 43 43 43 43 42 42 43 42 42 41 41 42 44 45 44 43 41 40 39 40 40 40 40 41 43 45 48 50 51 52 52 52 54 55 55 56 57 58 60 62 63 61 57 53 50 49 48 48 47 47 48 48 48 48 49 49 49 50 50 49 47 46 45 45 44 42 41 41 41 41
47 47 48 47 48 47 47 47 47 46 46 45 45 45 44 44 44 44 44 44 43 43 43 43 43 43 45 46 46 45 44 44 42 42 42 42 42 43 44 45 48 51 52 53 54 54 54 55 56 57 57 57 58 60 62 62 60 56 53 50 48 47 46 46 45 45 45 44 44 45 45 45 45 45 44 43 42 42 40 39 38 39 39 40 41
47 48 49 49 49 49 48 47 47 46 46 46 45 45 45 44 45 45 45 45 44 45 45 45 45 46 47 47 47 47 46 46 45 45 45 45 45 46 47 48 51 54 55 55 56 55 55 57 58 58 58 58 59 60 61 60 58 56 53 51 48 46 44 44 43 43 43 43 43 43 43 42 42 42 41 40 40 39 38 37 37 39 40 40 41
46 47 49 50 50 50 48 47 46 47 47 47 46 45 45 46 46 46 46 46 46 47 47 47 48 48 49 49 48 48 47 47 47 47 47 47 48 49 50 51 54 56 57 57 57 56 57 58 59 59 58 58 58 59 59 58 57 55 54 51 48 45 43 42 42 43 43 43 43 43 43 43 42 42 41 40 39 38 37 37 38 40 40 40 40
46 47 49 50 51 50 48 47 48 49 49 48 47 47 47 47 48 47 47 48 48 49 49 49 49 49 50 49 49 49 48 48 49 49 50 50 51 52 53 54 56 58 59 58 58 58 58 59 60 59 59 58 58 58 57 57 56 55 53 51 48 45 42 41 42 43 43 43 43 44 43 43 43 42 42 41 40 39 39 39 40 40 40 40 40
47 48 49 50 50 49 49 49 49 49 49 49 49 49 48 48 48 48 49 49 50 50 50 50 50 50 50 49 50 50 50 50 51 51 51 51 53 54 55 57 58 60 60 59 59 59 59 60 60 59 58 57 57 57 56 55 55 54 53 49 46 44 42 42 42 43 44 44 45 45 44 43 42 42 41 41 40 40 40 40 41 40 40 40 39
48 49 50 50 51 50 50 50 50 50 50 50 50 50 49 49 49 49 50 51 52 52 52 51 51 50 50 50 51 52 52 53 53 53 53 53 54 55 57 58 60 61 61 60 60 60 60 60 60 59 57 56 56 56 55 54 54 53 51 47 43 42 42 42 43 44 45 45 45 43 42 41 40 40 40 39 39 39 40 40 40 40 39 38 36
49 50 51 51 51 52 51 51 52 52 52 52 51 51 51 50 51 51 52 53 53 53 53 52 52 52 52 53 54 54 55 56 56 56 56 56 57 58 59 60 61 62 62 61 60 60 61 61 60 58 56 55 55 54 53 53 52 51 48 44 41 40 41 42 42 43 43 42 41 39 38 38 38 38 38 38 37 38 38 38 38 37 36 35 34
51 52 52 53 53 53 53 54 54 54 53 53 52 52 52 51 52 53 54 54 54 54 54 54 54 54 55 56 56 57 58 59 59 59 59 59 60 62 63 63 63 63 63 62 61 61 61 61 59 57 55 54 54 53 52 51 50 48 44 41 38 38 38 39 38 38 37 37 37 38 38 39 39 38 38 37 36 37 37 36 35 33 33 33 34
53 54 55 56 56 55 55 55 55 54 54 53 53 52 52 53 53 54 54 54 55 55 55 55 55 56 57 58 58 59 60 61 61 61 62 62 63 64 65 65 64 64 63 62 61 61 62 61 59 56 55 54 53 51 50 48 47 45 41 38 35 34 34 34 34 34 35 37 39 40 40 40 40 39 38 38 37 37 36 34 33 32 33 34 35
52 53 55 56 56 55 55 56 55 54 54 54 54 54 54 54 54 54 55 55 55 55 55 56 57 57 58 59 60 60 61 62 62 62 63 63 64 65 65 65 65 64 63 62 61 61 62 60 58 55 54 52 51 49 48 46 44 42 39 35 32 31 31 32 33 36 38 40 41 42 42 41 40 39 39 38 38 37 35 34 33 34 34 35 36
51 51 52 54 54 55 55 56 56 56 56 56 56 55 55 55 54 55 55 55 55 56 56 57 57 58 59 60 60 60 61 61 61 62 63 64 64 64 64 64 64 64 63 62 61 61 61 59 56 54 53 51 49 48 46 44 42 40 37 34 32 31 33 35 37 39 41 42 42 42 41 41 40 39 38 38 38 37 36 35 35 35 35 36 36
50 51 51 52 53 55 56 57 57 57 57 57 57 56 55 55 55 55 55 56 56 57 57 58 58 59 60 60 60 60 61 61 62 64 64 65 64 63 63 63 63 63 62 61 60 61 60 58 55 53 51 49 47 46 44 42 40 38 37 35 34 35 36 38 40 41 42 41 40 40 40 39 39 38 38 38 37 37 36 36 35 35 36 36 36
Wind_Direction
235 232 229 230 233 235 236 237 235 235 235 236 235 234 231 229 229 227 222 221 226 230 230 227 231 243 253 259 265 268 271 274 274 272 270 270 270 268 267 266 267 269 270 272 273 274 275 275 275 276 277 278 279 280 280 280 279 279 280 282 283 284 284 284 285 287 290 293 295 297 298 298 298 298 299 299 299 300 300 301 301 302 302 302 303
235 234 231 230 232 233 233 233 234 233 233 235 239 240 237 234 232 230 228 226 228 233 237 240 247 258 265 268 269 271 272 273 271 269 267 266 266 265 264 265 265 266 268 270 271 272 273 273 273 275 275 276 277 277 276 275 276 277 279 281 282 284 285 286 288 291 293 295 297 298 299 298 299 299 300 300 300 300 300 300 301 301 302 304 306
235 234 232 231 231 232 231 231 231 232 233 234 237 239 238 234 231 230 231 232 236 241 245 250 256 263 267 267 267 267 267 267 267 266 265 264 264 263 264 265 266 267 269 270 271 272 272 272 272 273 274 274 275 274 274 274 275 278 280 281 283 285 288 289 291 293 295 297 298 299 299 299 299 300 300 300 300 300 300 300 301 302 304 306 307
233 233 233 231 231 231 230 229 230 231 232 234 235 237 236 233 231 231 233 235 239 245 248 251 255 259 261 261 260 260 262 263 264 263 263 263 264 264 265 267 268 269 270 270 271 271 271 271 273 273 274 274 273 273 273 274 277 279 282 284 286 288 290 292 293 295 297 299 299 299 299 299 299 299 299 299 299 300 300 301 303 304 305 306 307
231 232 232 232 231 231 230 229 229 230 231 234 236 236 235 234 231 231 237 241 242 245 247 247 247 250 252 253 254 256 258 259 260 261 262 262 263 265 267 267 267 268 268 269 270 270 271 272 273 274 274 273 272 273 275 277 280 283 285 287 289 290 292 294 296 298 299 299 299 299 299 299 298 298 299 299 300 301 302 303 304 304 305 306 307
229 230 230 231 231 231 230 228 228 229 230 232 235 235 235 234 231 232 238 244 243 245 247 247 244 243 246 249 252 255 256 257 259 260 262 263 265 266 266 265 264 265 266 268 269 270 271 273 274 274 274 273 273 275 279 282 285 286 288 289 291 293 294 296 298 299 299 298 299 299 298 298 298 298 299 300 301 302 303 303 304 304 305 307 307
227 228 228 229 230 230 230 228 228 229 230 231 233 234 234 232 231 234 239 241 241 242 244 246 246 245 246 249 251 253 256 258 259 261 262 264 264 264 264 263 264 265 267 269 270 272 274 275 276 276 275 274 277 280 283 285 287 288 289 291 293 295 297 298 299 298 298 299 299 298 298 298 299 299 301 302 302 303 303 303 304 304 306 307 307
225 226 226 227 228 229 229 228 227 227 229 231 232 233 234 233 233 237 241 241 239 238 238 241 244 246 249 251 251 252 255 257 259 260 262 262 261 262 263 264 265 267 269 271 273 275 277 278 278 278 278 279 282 284 286 286 287 289 291 293 295 296 298 298 298 298 298 298 298 298 298 299 300 301 302 302 303 303 303 303 304 304 306 307 306
223 225 224 225 225 226 227 227 226 226 228 230 231 232 233 235 235 238 240 238 236 236 237 239 242 245 249 251 252 253 254 255 257 258 260 261 262 263 264 266 268 269 271 274 276 278 279 280 281 281 282 284 285 286 286 287 289 291 293 295 296 297 297 297 297 298 298 298 298 298 299 300 301 301 302 302 302 302 302 303 303 304 305 306 306
219 223 224 224 223 223 225 225 225 225 226 229 231 231 231 233 235 236 235 233 232 234 236 238 242 245 248 250 251 253 254 256 258 259 260 261 262 263 265 267 269 271 273 275 277 279 281 282 283 285 285 286 286 286 287 289 291 293 294 295 296 297 297 297 298 298 298 298 298 299 300 301 301 301 301 301 301 302 302 302 303 304 304 305 305
218 222 225 224 222 221 221 222 223 223 224 226 229 229 228 229 231 231 230 229 230 233 235 238 241 244 246 248 250 251 253 255 258 260 261 262 264 265 266 268 270 272 274 276 278 280 281 283 285 286 286 286 286 287 288 290 292 294 295 296 296 296 296 297 298 298 298 298 299 300 301 300 300 300 300 301 301 301 301 302 302 303 304 305 305
218 221 223 223 221 218 217 218 220 221 222 224 226 226 225 225 225 225 226 228 230 232 235 237 239 241 244 247 249 251 253 255 258 260 262 263 264 266 268 269 271 273 275 277 279 281 282 284 286 286 286 286 286 288 290 291 293 294 295 295 296 296 297 298 299 299 299 299 299 300 300 299 299 299 300 300 300 300 300 301 302 303 304 305 306
218 220 221 221 218 215 213 214 216 218 219 221 222 223 222 221 221 222 223 225 227 229 233 235 238 241 244 248 251 254 256 258 260 262 263 264 265 267 268 270 271 273 276 278 280 282 284 285 286 285 286 287 288 289 291 293 294 295 295 296 296 297 298 299 299 299 299 299 299 299 298 298 298 299 299 299 300 300 300 300 301 303 304 306 306
217 218 219 217 213 209 207 208 211 214 215 216 218 218 218 218 219 220 221 223 225 229 232 235 238 242 246 249 252 256 258 259 261 262 263 264 265 267 268 270 272 275 277 279 281 283 284 285 285 286 287 288 290 291 293 293 294 295 296 297 297 298 299 299 300 299 298 298 298 298 298 298 299 299 300 300 299 299 299 299 301 302 304 306 305
216 215 214 211 206 201 198 202 208 210 209 210 212 213 214 215 217 219 221 223 226 229 233 236 240 243 247 250 253 255 257 258 260 261 262 263 264 266 268 270 273 275 278 280 282 283 284 284 286 288 289 291 292 292 293 293 294 295 296 297 298 298 299 300 299 298 297 298 299 299 298 298 298 299 299 298 297 297 297 298 300 302 304 305 304
211 209 205 201 196 190 191 199 204 202 201 203 206 208 211 213 215 217 219 222 225 229 232 236 239 243 246 249 251 253 255 256 258 259 261 262 264 266 269 271 274 276 279 281 282 283 284 286 288 291 292 293 292 292 292 293 294 295 296 297 298 298 297 297 296 296 296 298 298 297 297 296 297 297 296 295 295 295 297 299 301 302 303 303 303
194 194 192 189 186 184 188 195 196 193 193 196 199 203 206 209 212 214 217 220 223 226 230 234 238 241 244 247 249 251 253 254 256 257 259 261 264 266 269 272 275 278 280 282 283 285 287 289 291 292 292 292 291 291 292 294 295 296 296 296 296 295 295 295 295 295 296 297 296 296 295 295 295 295 294 294 295 296 298 300 301 302 303 302 303
171 176 178 180 182 184 186 188 187 186 188 190 194 198 201 205 209 211 214 218 222 226 231 234 238 241 244 246 248 250 252 253 255 257 259 262 265 268 271 275 277 280 282 284 286 288 290 291 292 292 291 291 291 292 293 294 294 295 295 294 294 295 295 295 295 296 296 296 295 295 295 295 295 295 294 295 296 297 298 299 300 302 302 302 303
163 168 170 172 175 177 179 180 181 183 185 187 190 194 198 202 206 210 215 220 224 229 233 236 240 242 244 246 248 251 252 254 256 258 261 264 268 272 275 277 279 282 284 286 287 289 290 290 291 291 291 291 292 292 293 294 294 294 295 295 295 295 295 295 296 296 295 295 295 295 294 295 295 295 295 295 296 297 298 299 301 301 301 302 304
158 161 163 165 168 170 173 176 178 180 183 186 190 193 198 202 207 212 218 222 227 231 234 237 240 242 244 247 249 251 253 256 258 261 264 267 271 274 277 279 281 283 284 286 287 288 289 289 290 291 291 292 292 293 295 296 296 296 297 297 297 296 296 297 297 296 295 295 295 294 294 295 295 295 295 295 296 297 298 300 301 301 301 303 305
155 157 160 163 165 168 171 174 176 179 182 186 190 195 199 204 209 214 219 223 227 230 233 236 239 241 244 247 249 252 254 256 259 262 265 268 272 275 278 280 282 283 284 285 286 287 288 289 290 291 292 293 295 296 297 297 297 298 298 298 298 298 298 297 297 296 296 296 295 295 295 295 295 296 296 296 296 297 299 300 300 300 301 304 306
154 157 160 162 165 167 169 171 174 178 182 187 192 197 201 206 211 215 219 223 226 229 232 235 238 241 244 247 249 251 254 256 259 262 265 268 271 274 277 280 281 282 283 284 286 287 289 291 292 293 294 295 296 297 298 299 300 301 300 300 301 301 300 299 299 299 298 297 297 296 296 296 297 297 296 296 296 298 299 299 299 300 302 305 307
156 158 161 163 165 167 170 173 177 182 186 191 196 200 204 208 212 216 219 223 226 229 232 235 238 241 244 246 249 252 254 257 261 264 267 270 272 274 276 278 280 281 283 285 287 289 291 293 294 294 295 297 299 300 302 304 305 305 304 303 303 302 301 301 300 299 298 298 297 297 297 297 297 297 296 296 297 298 298 298 298 300 303 305 306
164 165 167 169 172 174 177 180 184 188 192 195 199 202 206 209 213 216 220 223 226 229 232 235 238 241 244 247 250 252 256 259 262 265 268 270 272 274 276 277 280 282 284 287 289 291 293 294 295 296 299 302 305 306 308 308 308 307 305 304 303 302 302 301 300 299 298 297 296 296 296 296 296 296 295 296 297 297 297 297 298 300 303 305 306
174 175 177 178 180 183 185 188 191 194 197 199 202 205 208 211 214 217 220 223 226 229 232 235 238 241 244 247 250 254 257 260 263 266 268 270 273 275 276 278 280 282 285 288 291 293 295 297 299 303 306 309 310 310 310 309 307 306 305 304 303 303 303 300 299 298 297 296 295 296 296 296 296 295 295 296 296 296 296 296 298 300 303 305 306
189 189 189 189 190 191 193 195 197 199 202 204 206 209 211 213 216 219 222 225 227 230 234 237 240 242 245 249 252 255 257 260 263 266 269 272 274 275 277 278 280 283 286 290 293 296 298 302 305 309 311 311 310 309 309 308 308 307 308 307 307 305 303 300 298 297 296 296 296 295 295 295 295 295 295 296 295 295 295 296 298 301 303 305 306
204 204 204 203 203 203 203 205 206 207 209 210 212 214 216 218 221 223 226 228 231 234 236 239 241 244 247 249 252 254 257 260 264 267 269 270 272 274 276 279 281 285 289 294 297 301 305 308 309 311 310 309 308 308 309 310 310 309 310 310 310 309 305 301 299 298 297 297 295 294 294 294 294 294 295 294 294 294 295 297 299 302 304 305 305
213 213 213 213 213 213 214 215 216 216 218 219 220 222 223 225 227 228 230 232 234 236 239 241 243 246 248 250 253 255 258 261 263 264 264 265 268 271 274 278 283 290 297 301 303 306 309 311 311 310 308 307 307 308 310 311 311 311 311 312 313 312 308 303 300 298 298 296 294 293 292 292 292 292 293 293 293 295 296 298 300 303 304 304 303
224 223 221 220 220 220 221 222 223 223 225 226 227 228 230 231 232 233 235 237 238 240 242 244 246 247 249 251 253 254 256 257 257 257 258 260 262 266 272 280 289 298 303 304 305 306 309 310 310 308 307 307 308 309 310 311 312 313 313 312 312 312 309 303 300 298 296 294 292 290 290 290 291 292 293 294 295 296 297 299 301 303 303 302 300
229 229 229 227 227 227 226 227 227 228 229 229 230 231 232 234 235 236 237 239 240 241 241 242 244 245 246 248 249 250 251 250 249 249 250 254 259 266 276 286 294 300 302 303 304 306 309 310 309 308 308 309 310 310 310 311 313 313 313 313 312 311 307 302 299 296 293 292 291 291 291 292 292 293 293 294 295 296 298 299 301 302 301 300 298
230 230 230 230 229 229 229 229 230 230 231 231 232 232 233 234 235 235 236 237 238 238 239 240 241 242 243 244 245 246 244 241 240 242 248 254 261 269 278 286 293 298 300 303 305 308 309 309 309 309 310 311 311 312 312 313 313 313 313 313 312 308 304 301 298 296 293 293 293 292 291 291 291 292 293 295 296 297 298 299 300 300 299 298 297
229 229 230 230 229 229 229 229 230 230 231 231 232 232 232 233 233 233 234 235 235 236 237 238 239 241 242 242 242 240 236 234 236 244 251 256 261 268 277 285 291 295 299 303 306 308 309 310 310 310 311 312 312 313 313 313 313 313 313 312 310 306 303 300 298 296 295 293 291 290 290 290 292 293 295 296 296 297 298 299 299 299 298 297 297
228 228 228 228 228 228 228 228 228 228 229 229 229 230 230 230 230 231 232 232 233 235 236 238 240 240 240 239 236 232 230 233 240 246 251 255 261 269 278 285 290 293 297 301 305 308 309 310 309 309 309 310 311 312 312 312 312 312 312 311 307 304 301 299 298 297 296 295 293 292 293 294 294 295 296 296 297 298 298 298 298 297 296 296 297
231 230 229 228 227 227 227 227 226 226 226 226 227 227 228 228 229 230 231 233 234 236 237 239 239 238 236 234 231 228 230 237 243 247 251 256 263 271 279 286 289 291 294 299 304 308 309 309 308 308 308 308 309 310 311 312 312 312 311 309 306 303 302 301 299 297 296 296 295 295 296 296 296 297 297 298 299 298 297 296 296 296 296 297 298
234 233 232 231 229 228 228 228 227 227 227 227 227 228 228 229 230 232 234 235 236 236 237 237 236 235 234 231 228 229 234 240 244 249 253 259 265 273 280 286 288 290 293 298 303 306 307 308 309 308 308 308 309 309 311 311 311 311 310 308 306 305 305 304 301 298 296 296 297 297 298 298 298 298 298 298 298 297 295 294 294 294 295 297 297
235 235 235 234 233 231 231 231 230 230 230 230 230 231 232 233 234 236 236 237 236 236 236 236 235 233 231 229 230 234 238 243 246 251 257 262 268 274 280 285 288 291 295 299 302 304 306 308 309 309 308 308 309 309 310 311 311 311 311 310 308 308 308 307 304 300 299 300 300 300 299 298 297 298 298 298 297 295 293 293 293 294 296 296 296
235 236 236 236 236 235 235 235 235 235 235 235 235 236 236 237 237 237 237 237 236 235 235 234 233 232 231 232 236 239 242 245 249 255 260 264 269 274 280 285 289 293 296 298 300 303 306 308 309 310 309 309 309 309 310 311 311 311 312 311 310 310 310 309 307 303 302 301 301 300 299 298 298 298 298 297 295 294 293 293 294 295 296 295 295
237 237 238 238 238 238 238 238 238 239 239 239 239 239 239 238 238 237 237 236 235 234 234 234 233 234 236 238 240 242 244 247 252 257 262 265 269 275 281 286 291 294 296 298 300 302 305 308 310 310 309 308 308 309 310 311 312 312 312 312 311 310 310 310 309 306 303 302 300 299 299 299 299 299 299 298 296 295 294 295 296 296 296 295 294
238 238 238 239 239 239 238 238 239 239 239 239 239 239 239 238 238 237 236 235 234 234 234 235 235 237 240 242 242 244 246 249 254 259 263 266 271 276 281 287 292 294 296 297 299 302 305 308 310 309 308 308 309 310 311 312 312 312 311 310 310 309 308 308 308 307 306 304 302 301 301 301 301 301 300 299 298 297 297 298 297 296 294 293 292
237 238 238 238 239 238 237 237 237 237 237 238 238 238 238 238 237 236 236 235 235 235 235 236 238 240 241 243 244 246 248 250 254 260 264 268 273 277 282 287 291 294 295 297 299 302 306 308 309 309 308 308 309 310 311 312 312 311 309 308 307 307 307 307 307 307 308 308 306 305 305 304 303 302 301 300 299 299 299 298 297 295 293 292 292
236 237 237 238 238 237 236 235 235 236 237 238 238 238 238 237 237 237 237 236 235 235 236 238 240 242 243 244 246 247 249 252 256 261 265 270 274 278 282 286 290 293 295 297 299 302 305 307 308 308 308 309 310 311 311 312 311 309 307 305 304 304 306 307 307 307 308 308 309 308 308 307 305 304 302 300 299 299 298 297 295 293 292 292 292
234 234 235 236 236 236 236 235 235 236 237 238 238 238 237 237 237 237 237 236 236 236 238 241 242 244 245 246 248 250 253 255 259 263 267 272 276 279 282 285 289 292 295 297 299 302 304 306 308 308 308 309 310 310 311 311 310 308 305 303 301 301 303 306 308 308 308 308 308 308 307 306 305 304 302 300 299 299 297 295 293 292 292 292 292
234 233 233 234 235 235 236 236 236 237 237 238 238 238 237 237 237 238 238 237 237 239 241 243 245 246 248 249 252 254 257 259 262 265 269 274 278 281 282 285 288 291 294 297 299 301 303 306 307 307 308 309 309 310 310 311 309 307 305 303 299 297 299 303 306 308 309 308 307 307 307 305 304 303 303 302 301 298 296 294 293 292 292 293 293
236 235 235 235 235 236 237 237 238 239 239 239 239 239 239 239 239 239 239 239 240 242 244 245 247 248 250 252 255 257 260 262 265 267 271 276 279 281 282 284 287 290 293 296 299 301 303 305 306 306 307 308 309 309 310 310 309 307 305 303 299 296 295 298 303 307 308 308 307 306 306 306 305 305 305 304 303 300 298 297 295 295 295 295 295
240 239 239 238 238 239 239 239 239 240 240 240 240 240 240 240 240 240 240 241 243 244 246 247 249 251 253 255 257 260 262 264 267 269 272 276 279 281 282 284 286 288 291 295 299 301 302 303 304 305 306 307 308 309 310 310 309 307 306 304 300 296 294 297 301 304 306 306 306 306 306 307 307 308 308 308 306 303 301 300 298 297 297 297 297
244 242 242 242 242 242 241 240 240 239 239 240 240 240 240 240 240 241 242 243 245 247 248 250 251 253 255 257 259 261 263 266 268 270 273 275 278 281 282 284 286 287 289 294 298 300 301 302 304 304 305 307 307 308 309 309 309 307 306 304 301 297 297 298 301 303 304 305 307 308 309 309 310 310 309 309 307 305 303 302 302 301 300 298 298
246 245 244 243 244 244 243 241 240 239 238 239 240 240 241 242 242 243 244 245 247 249 251 252 254 255 257 259 261 262 265 267 269 271 273 276 278 280 282 284 285 286 288 292 297 300 301 302 303 304 305 306 306 307 308 309 308 307 306 304 302 300 301 302 303 304 305 307 309 310 310 310 309 308 307 306 305 304 304 303 303 302 299 298 298
249 248 245 244 244 245 244 242 240 239 239 240 241 242 242 243 243 245 246 248 250 251 253 254 256 257 259 261 262 264 266 268 270 273 275 277 278 280 281 283 285 286 288 292 296 299 300 301 302 303 303 304 305 306 308 308 307 306 305 303 303 304 304 304 304 305 307 308 309 309 308 308 307 306 305 304 303 303 304 303 302 300 298 298 299
253 251 247 244 243 243 243 241 239 238 239 240 241 242 243 244 245 247 248 250 251 253 254 255 257 259 261 262 264 266 268 270 272 275 276 278 279 281 282 283 284 285 287 291 295 298 299 300 301 301 302 303 304 305 306 306 305 304 304 303 303 303 302 302 304 305 307 309 310 309 309 308 307 306 305 303 302 303 303 302 301 300 299 300 301
257 253 250 246 243 242 241 240 238 238 238 240 241 243 244 246 247 248 249 251 253 254 255 257 259 261 263 264 266 268 270 272 274 276 277 279 280 282 282 283 284 285 287 290 294 296 298 298 299 300 300 301 302 303 304 304 303 302 301 300 299 299 300 301 304 306 308 310 310 310 310 310 308 307 306 304 304 304 303 303 302 302 302 302 304
258 255 251 248 245 242 241 239 238 238 239 240 242 244 245 247 248 249 250 252 254 255 257 259 260 262 264 266 267 269 271 272 274 276 277 279 281 282 283 283 284 285 286 289 292 295 296 297 297 298 298 299 300 301 301 301 300 300 298 296 296 297 299 301 304 306 308 310 311 312 312 311 310 309 308 307 306 305 305 305 305 305 305 306 307
Height
5585 5593 5602 5607 5611 5617 5622 5627 5633 5639 5643 5647 5651 5654 5656 5660 5665 5669 5671 5674 5678 5682 5687 5689 5690 5692 5695 5697 5699 5701 5704 5706 5708 5710 5710 5711 5712 5714 5715 5715 5716 5717 5717 5717 5717 5717 5717 5717 5717 5716 5715 5714 5713 5712 5711 5710 5710 5709 5709 5708 5707 5706 5705 5703 5702 5700 5698 5696 5693 5690 5688 5686 5684 5681 5679 5676 5673 5669 5665 5661 5658 5656 5653 5649 5645
5572 5581 5590 5597 5603 5609 5615 5620 5625 5631 5636 5641 5645 5647 5651 5655 5659 5663 5667 5670 5672 5676 5680 5683 5685 5688 5691 5693 5696 5698 5700 5702 5704 5705 5706 5707 5709 5710 5711 5711 5712 5712 5713 5713 5713 5713 5713 5712 5712 5711 5710 5709 5708 5707 5707 5706 5706 5705 5704 5703 5702 5701 5699 5698 5696 5694 5692 5690 5687 5684 5682 5679 5677 5675 5672 5669 5666 5663 5658 5654 5651 5649 5646 5642 5638
5560 5567 5576 5586 5593 5600 5606 5612 5618 5623 5629 5635 5640 5643 5647 5650 5653 5657 5661 5665 5668 5672 5675 5678 5681 5684 5687 5689 5692 5694 5696 5698 5700 5701 5703 5704 5705 5706 5707 5707 5708 5708 5708 5708 5708 5708 5708 5707 5706 5705 5704 5704 5703 5702 5702 5701 5701 5700 5700 5699 5697 5695 5694 5692 5690 5688 5686 5683 5681 5678 5675 5672 5670 5668 5665 5662 5659 5656 5652 5648 5644 5641 5639 5635 5631
5546 5554 5564 5574 5583 5590 5597 5604 5610 5616 5622 5628 5634 5639 5643 5646 5649 5652 5656 5660 5664 5668 5671 5674 5678 5681 5684 5686 5689 5691 5693 5695 5696 5698 5699 5700 5701 5702 5703 5703 5703 5704 5703 5703 5703 5703 5702 5701 5701 5700 5699 5698 5698 5697 5697 5697 5696 5696 5695 5693 5691 5689 5688 5686 5684 5682 5680 5677 5674 5671 5668 5665 5663 5661 5658 5655 5653 5649 5646 5642 5638 5634 5631 5628 5623
5533 5543 5553 5562 5572 5581 5589 5595 5601 5609 5616 5622 5627 5633 5638 5642 5645 5648 5652 5655 5660 5664 5667 5671 5675 5678 5681 5683 5685 5687 5689 5691 5693 5694 5696 5696 5697 5698 5698 5698 5699 5699 5698 5698 5698 5697 5697 5696 5695 5695 5694 5693 5693 5692 5692 5692 5691 5690 5688 5687 5685 5683 5682 5680 5678 5676 5673 5670 5667 5665 5662 5659 5656 5654 5652 5649 5646 5643 5639 5636 5631 5628 5624 5621 5616
5522 5531 5541 5551 5561 5571 5579 5587 5595 5603 5610 5616 5621 5627 5633 5637 5641 5645 5648 5652 5656 5660 5664 5667 5671 5674 5677 5680 5682 5684 5685 5687 5689 5690 5691 5692 5692 5693 5693 5694 5694 5694 5693 5693 5693 5692 5692 5691 5690 5689 5689 5688 5688 5687 5687 5686 5685 5684 5682 5680 5679 5677 5675 5674 5672 5669 5667 5664 5661 5658 5655 5653 5650 5647 5645 5642 5640 5636 5633 5629 5625 5621 5617 5614 5610
5512 5521 5531 5540 5550 5560 5569 5580 5590 5597 5603 5609 5615 5621 5627 5632 5636 5640 5645 5649 5653 5657 5660 5663 5667 5670 5673 5675 5678 5680 5681 5683 5684 5685 5686 5687 5688 5688 5688 5689 5689 5689 5689 5688 5688 5687 5686 5686 5685 5684 5683 5683 5683 5682 5682 5681 5679 5677 5676 5674 5672 5671 5669 5667 5665 5663 5660 5658 5655 5652 5649 5647 5644 5641 5638 5635 5632 5629 5626 5622 5618 5614 5609 5606 5602
5505 5512 5521 5531 5541 5550 5561 5572 5582 5589 5596 5602 5609 5615 5621 5626 5631 5635 5640 5645 5650 5654 5657 5660 5663 5666 5669 5671 5673 5675 5677 5679 5680 5681 5682 5683 5683 5684 5684 5684 5684 5684 5683 5683 5682 5682 5681 5680 5679 5679 5678 5678 5677 5677 5676 5674 5673 5671 5670 5668 5666 5664 5662 5661 5659 5657 5654 5651 5649 5646 5643 5640 5638 5634 5632 5628 5625 5622 5618 5615 5612 5607 5603 5599 5595
5499 5506 5514 5523 5532 5542 5552 5562 5573 5582 5589 5595 5603 5610 5616 5621 5626 5631 5637 5642 5646 5649 5653 5657 5659 5662 5665 5667 5669 5671 5672 5674 5675 5676 5677 5678 5678 5679 5679 5679 5679 5678 5678 5677 5677 5676 5675 5675 5674 5673 5673 5672 5672 5671 5670 5668 5666 5665 5663 5661 5659 5657 5656 5654 5652 5650 5648 5645 5642 5640 5637 5634 5631 5628 5625 5622 5618 5614 5611 5607 5604 5600 5597 5593 5588
5494 5502 5510 5517 5525 5534 5543 5553 5564 5574 5583 5590 5598 5605 5611 5616 5622 5627 5633 5637 5641 5645 5649 5652 5656 5659 5661 5663 5665 5666 5667 5668 5670 5671 5672 5673 5673 5674 5674 5674 5674 5673 5673 5672 5671 5671 5670 5669 5669 5668 5668 5667 5666 5665 5663 5662 5660 5658 5656 5654 5652 5651 5650 5648 5646 5644 5641 5639 5636 5633 5631 5628 5625 5622 5618 5615 5611 5607 5603 5600 5597 5593 5590 5586 5582
5492 5500 5506 5512 5519 5527 5536 5546 5556 5567 5577 5586 5593 5599 5606 5612 5618 5623 5628 5633 5637 5641 5645 5649 5652 5655 5657 5659 5660 5661 5662 5663 5665 5666 5667 5668 5668 5668 5668 5669 5668 5668 5667 5667 5666 5666 5665 5664 5664 5663 5663 5662 5660 5659 5657 5655 5653 5651 5649 5648 5646 5645 5644 5642 5640 5638 5635 5633 5630 5627 5625 5622 5618 5615 5612 5608 5604 5600 5596 5593 5590 5587 5583 5579 5575
5491 5497 5502 5507 5514 5522 5531 5540 5550 5561 5571 5580 5587 5594 5602 5608 5614 5620 5624 5629 5633 5637 5641 5644 5647 5650 5652 5654 5655 5656 5657 5659 5660 5661 5662 5663 5663 5663 5663 5663 5663 5663 5662 5662 5661 5661 5660 5659 5659 5658 5657 5656 5655 5653 5651 5649 5647 5645 5643 5642 5641 5640 5638 5636 5634 5632 5629 5627 5624 5621 5618 5615 5611 5608 5605 5601 5598 5594 5590 5586 5583 5580 5577 5573 5568
5489 5494 5499 5504 5510 5517 5526 5535 5545 5556 5566 5574 5581 5589 5597 5604 5610 5615 5620 5624 5629 5633 5636 5640 5642 5645 5647 5648 5650 5651 5652 5654 5655 5656 5657 5658 5658 5659 5659 5659 5658 5658 5657 5657 5656 5655 5655 5654 5654 5653 5652 5651 5649 5646 5644 5642 5641 5639 5638 5637 5635 5634 5632 5631 5629 5626 5623 5621 5618 5615 5611 5608 5605 5601 5598 5594 5591 5587 5583 5580 5577 5574 5570 5566 5562
5486 5490 5495 5500 5506 5513 5522 5533 5543 5552 5560 5568 5577 5585 5593 5600 5605 5611 5616 5620 5624 5628 5632 5635 5637 5639 5642 5643 5645 5646 5648 5649 5651 5652 5652 5653 5654 5654 5654 5654 5653 5653 5652 5651 5651 5650 5650 5649 5649 5647 5646 5644 5642 5640 5638 5637 5636 5635 5633 5632 5630 5628 5626 5624 5622 5620 5617 5614 5611 5608 5604 5601 5597 5594 5591 5587 5583 5580 5576 5573 5570 5567 5563 5560 5555
5483 5487 5491 5496 5503 5511 5521 5533 5541 5548 5556 5565 5573 5581 5589 5595 5601 5606 5611 5615 5619 5624 5627 5630 5632 5635 5637 5639 5641 5642 5644 5645 5646 5647 5648 5649 5649 5649 5648 5648 5647 5647 5646 5646 5646 5645 5645 5644 5643 5641 5640 5638 5637 5635 5633 5632 5631 5630 5628 5626 5624 5622 5621 5618 5615 5612 5609 5607 5604 5601 5597 5594 5590 5587 5584 5580 5576 5573 5569 5566 5563 5560 5556 5553 5549
5481 5484 5488 5494 5502 5511 5521 5531 5539 5546 5554 5562 5570 5578 5585 5591 5597 5602 5606 5611 5615 5619 5622 5625 5628 5630 5632 5635 5637 5638 5639 5641 5642 5643 5643 5644 5644 5643 5643 5642 5642 5641 5641 5641 5640 5640 5639 5637 5636 5635 5634 5632 5631 5630 5629 5628 5626 5625 5623 5621 5619 5617 5615 5613 5609 5606 5603 5601 5598 5594 5590 5587 5584 5580 5577 5573 5569 5566 5562 5559 5555 5552 5549 5546 5542
5480 5484 5489 5496 5504 5511 5520 5530 5537 5545 5552 5559 5567 5574 5581 5587 5592 5597 5602 5607 5611 5615 5618 5621 5624 5626 5628 5631 5632 5634 5635 5637 5638 5638 5638 5638 5638 5638 5637 5637 5637 5636 5636 5635 5634 5634 5632 5631 5630 5629 5628 5627 5626 5625 5624 5623 5621 5619 5618 5616 5613 5611 5609 5606 5603 5600 5597 5594 5591 5587 5583 5579 5576 5573 5569 5565 5562 5559 5555 5551 5548 5544 5541 5538 5535
5482 5487 5492 5499 5506 5513 5520 5529 5537 5543 5550 5556 5564 5571 5577 5583 5589 5594 5599 5603 5606 5610 5613 5617 5619 5622 5624 5626 5628 5629 5631 5632 5633 5633 5633 5633 5633 5632 5632 5632 5631 5630 5630 5629 5628 5627 5626 5625 5625 5624 5623 5622 5620 5619 5618 5617 5615 5613 5612 5609 5607 5605 5602 5599 5596 5593 5591 5587 5583 5579 5575 5572 5569 5565 5561 5557 5554 5551 5548 5544 5540 5537 5533 5530 5527
5487 5491 5496 5502 5508 5515 5522 5530 5536 5542 5549 5555 5561 5567 5574 5580 5586 5590 5594 5599 5602 5606 5610 5613 5615 5617 5619 5621 5623 5624 5625 5626 5626 5627 5627 5627 5627 5626 5625 5626 5625 5624 5624 5623 5623 5622 5621 5620 5619 5619 5618 5616 5614 5613 5612 5611 5609 5607 5605 5603 5600 5597 5594 5592 5590 5587 5583 5580 5576 5571 5567 5563 5560 5557 5554 5550 5546 5544 5541 5537 5533 5530 5526 5523 5520
5492 5496 5501 5506 5512 5518 5525 5531 5537 5543 5549 5555 5560 5566 5573 5578 5583 5587 5591 5595 5599 5602 5606 5608 5610 5612 5614 5616 5618 5618 5619 5620 5620 5620 5621 5621 5621 5620 5620 5620 5620 5619 5619 5618 5618 5617 5617 5615 5614 5613 5612 5610 5608 5607 5606 5605 5602 5600 5598 5596 5593 5589 5587 5585 5582 5579 5576 5572 5567 5563 5558 5555 5552 5549 5546 5543 5539 5536 5533 5529 5526 5522 5519 5516 5513
5500 5502 5506 5511 5516 5521 5527 5533 5538 5544 5549 5555 5560 5565 5570 5575 5579 5583 5587 5591 5595 5598 5601 5603 5605 5607 5609 5610 5612 5613 5613 5614 5614 5615 5615 5615 5616 5616 5615 5615 5615 5615 5614 5614 5613 5612 5612 5610 5609 5608 5606 5605 5603 5601 5600 5598 5596 5593 5591 5588 5585 5582 5579 5576 5573 5570 5567 5563 5558 5554 5551 5547 5545 5542 5539 5536 5532 5529 5526 5522 5518 5515 5511 5508 5506
5507 5509 5512 5515 5520 5524 5529 5535 5540 5545 5550 5555 5559 5563 5568 5572 5576 5580 5583 5587 5590 5593 5596 5599 5601 5602 5604 5605 5606 5607 5607 5608 5608 5609 5610 5611 5612 5612 5611 5611 5610 5610 5609 5609 5608 5608 5607 5606 5604 5602 5600 5599 5597 5595 5593 5591 5589 5587 5584 5580 5578 5575 5571 5567 5565 5562 5558 5554 5550 5546 5543 5539 5537 5534 5531 5528 5525 5522 5518 5514 5510 5507 5504 5501 5499
5513 5515 5518 5521 5524 5528 5531 5535 5540 5544 5548 5552 5556 5561 5565 5569 5573 5576 5580 5583 5586 5589 5592 5594 5596 5597 5599 5600 5601 5601 5602 5602 5603 5604 5605 5606 5607 5607 5607 5606 5606 5605 5604 5604 5604 5603 5602 5601 5599 5596 5594 5593 5592 5589 5586 5584 5582 5580 5576 5572 5570 5567 5563 5559 5557 5554 5550 5546 5542 5539 5534 5531 5528 5526 5523 5520 5517 5514 5510 5506 5502 5499 5497 5494 5492
5517 5519 5521 5524 5527 5529 5532 5535 5539 5542 5546 5550 5554 5558 5562 5566 5569 5573 5576 5579 5582 5585 5587 5589 5591 5592 5594 5595 5595 5596 5596 5597 5598 5599 5600 5600 5601 5602 5602 5602 5602 5601 5600 5600 5599 5598 5597 5595 5593 5591 5589 5587 5585 5582 5579 5577 5575 5573 5570 5565 5562 5560 5557 5552 5548 5545 5541 5537 5534 5530 5526 5522 5519 5517 5514 5512 5509 5506 5502 5498 5495 5492 5490 5487 5485
5520 5521 5523 5525 5527 5530 5533 5535 5538 5541 5545 5548 5552 5555 5559 5562 5565 5568 5571 5574 5577 5580 5582 5584 5586 5587 5588 5589 5590 5590 5591 5592 5593 5594 5594 5594 5595 5596 5597 5597 5598 5597 5596 5595 5594 5593 5591 5589 5587 5585 5583 5580 5578 5575 5572 5570 5567 5565 5563 5559 5554 5551 5549 5544 5539 5535 5532 5529 5525 5521 5517 5514 5511 5508 5506 5503 5501 5498 5494 5491 5488 5486 5483 5481 5478
5522 5523 5525 5527 5528 5530 5533 5535 5538 5540 5543 5546 5549 5552 5555 5558 5561 5564 5567 5570 5572 5575 5577 5578 5580 5581 5583 5584 5585 5585 5586 5587 5588 5589 5589 5589 5590 5590 5591 5592 5593 5593 5592 5590 5589 5588 5586 5583 5581 5579 5576 5573 5571 5568 5566 5563 5560 5557 5555 5552 5548 5544 5540 5536 5530 5526 5523 5519 5516 5512 5508 5505 5503 5500 5498 5495 5493 5490 5487 5484 5482 5479 5477 5474 5471
5522 5524 5525 5527 5529 5531 5533 5535 5537 5539 5542 5544 5547 5550 5552 5555 5558 5561 5563 5566 5568 5570 5571 5573 5574 5576 5577 5578 5579 5580 5581 5583 5584 5584 5584 5584 5584 5584 5585 5586 5587 5587 5587 5586 5583 5582 5580 5578 5575 5572 5570 5567 5564 5561 5558 5555 5552 5548 5545 5543 5540 5536 5532 5527 5522 5518 5514 5510 5507 5504 5500 5497 5494 5492 5490 5488 5485 5482 5480 5477 5475 5473 5470 5467 5464
5520 5522 5523 5525 5527 5529 5531 5533 5535 5537 5540 5542 5544 5547 5549 5552 5554 5556 5559 5561 5562 5564 5565 5567 5569 5571 5572 5572 5574 5575 5577 5579 5579 5578 5578 5579 5579 5579 5580 5580 5580 5580 5580 5579 5577 5575 5574 5572 5569 5566 5563 5560 5557 5554 5551 5547 5544 5540 5536 5533 5531 5528 5525 5521 5515 5510 5505 5501 5498 5495 5492 5490 5487 5485 5483 5481 5478 5475 5473 5470 5468 5466 5463 5461 5458
5518 5520 5521 5523 5525 5527 5528 5530 5532 5534 5536 5538 5541 5543 5545 5547 5549 5551 5553 5555 5557 5559 5560 5562 5564 5565 5566 5567 5569 5571 5572 5573 5573 5572 5573 5574 5574 5574 5574 5574 5573 5573 5573 5572 5571 5570 5568 5566 5564 5560 5556 5553 5549 5546 5543 5539 5536 5533 5529 5524 5521 5519 5516 5512 5508 5503 5497 5492 5489 5487 5484 5482 5480 5478 5476 5473 5471 5468 5465 5463 5461 5459 5456 5454 5451
5516 5517 5519 5521 5522 5524 5525 5527 5529 5531 5532 5535 5537 5538 5540 5542 5545 5547 5549 5550 5552 5553 5555 5557 5558 5559 5561 5562 5564 5565 5567 5567 5566 5567 5568 5569 5568 5568 5568 5567 5567 5566 5566 5565 5564 5563 5561 5559 5556 5553 5549 5546 5542 5539 5535 5532 5528 5525 5521 5517 5512 5509 5506 5502 5499 5495 5489 5484 5481 5479 5477 5475 5473 5471 5468 5466 5463 5461 5458 5456 5454 5452 5449 5446 5443
5514 5515 5516 5517 5519 5520 5522 5523 5525 5527 5529 5531 5532 5534 5536 5538 5540 5542 5544 5545 5546 5548 5550 5551 5552 5554 5556 5557 5558 5559 5560 5561 5561 5561 5562 5562 5562 5562 5562 5561 5561 5560 5559 5558 5557 5556 5554 5550 5548 5545 5541 5538 5535 5531 5527 5523 5520 5517 5514 5509 5505 5501 5497 5493 5489 5485 5480 5477 5474 5471 5469 5467 5465 5463 5461 5458 5456 5454 5451 5449 5447 5444 5442 5439 5436
5510 5511 5513 5514 5515 5517 5518 5520 5522 5523 5525 5527 5528 5530 5532 5533 5536 5537 5538 5539 5541 5542 5544 5546 5547 5548 5550 5551 5552 5553 5554 5554 5555 5555 5556 5556 5557 5557 5556 5556 5555 5554 5552 5551 5550 5548 5546 5543 5540 5537 5534 5531 5527 5524 5520 5516 5512 5509 5506 5502 5497 5493 5488 5484 5480 5476 5473 5469 5466 5464 5461 5459 5457 5455 5453 5451 5448 5446 5444 5441 5439 5437 5434 5432 5429
5507 5508 5508 5510 5511 5513 5515 5516 5518 5519 5521 5522 5523 5525 5527 5528 5530 5531 5532 5533 5535 5537 5539 5540 5541 5543 5544 5545 5546 5547 5547 5548 5549 5550 5550 5551 5551 5550 5550 5549 5549 5548 5546 5544 5543 5541 5539 5536 5533 5530 5527 5524 5521 5517 5513 5509 5505 5501 5497 5493 5488 5484 5479 5475 5471 5468 5465 5462 5459 5456 5454 5451 5449 5447 5445 5443 5441 5439 5436 5434 5431 5429 5427 5424 5423
5503 5504 5504 5506 5507 5509 5510 5512 5513 5514 5515 5517 5518 5520 5521 5523 5524 5525 5526 5528 5530 5532 5534 5535 5535 5536 5537 5539 5540 5541 5541 5542 5543 5544 5544 5544 5544 5544 5544 5543 5543 5541 5539 5537 5536 5534 5532 5530 5527 5524 5520 5517 5513 5510 5506 5502 5497 5493 5489 5484 5480 5475 5472 5468 5464 5461 5458 5455 5452 5450 5447 5444 5442 5440 5437 5435 5433 5431 5429 5426 5423 5421 5419 5418 5416
5498 5499 5500 5501 5503 5504 5506 5507 5508 5509 5511 5512 5513 5514 5515 5516 5517 5519 5521 5523 5525 5526 5527 5528 5529 5530 5531 5533 5534 5535 5535 5536 5537 5538 5538 5538 5537 5537 5538 5537 5536 5534 5532 5531 5529 5527 5525 5523 5520 5517 5513 5510 5506 5502 5498 5493 5489 5485 5481 5476 5472 5468 5464 5461 5457 5453 5451 5449 5446 5443 5440 5437 5435 5432 5430 5428 5426 5423 5421 5418 5416 5414 5412 5411 5409
5493 5494 5495 5496 5498 5499 5500 5501 5502 5504 5505 5506 5507 5508 5509 5511 5512 5514 5515 5517 5519 5520 5521 5522 5523 5524 5525 5527 5528 5528 5529 5530 5531 5531 5531 5531 5531 5531 5531 5531 5529 5527 5525 5524 5522 5520 5518 5516 5513 5510 5506 5503 5499 5494 5490 5485 5481 5477 5473 5469 5465 5461 5457 5454 5450 5447 5444 5442 5439 5436 5434 5431 5428 5425 5423 5421 5418 5416 5413 5411 5409 5407 5406 5404 5403
5488 5489 5490 5491 5492 5493 5494 5495 5497 5498 5499 5500 5501 5503 5504 5506 5507 5508 5510 5511 5513 5514 5515 5515 5516 5518 5520 5521 5521 5521 5522 5523 5524 5524 5525 5525 5525 5525 5525 5524 5522 5520 5519 5517 5515 5513 5511 5508 5506 5503 5499 5495 5491 5487 5482 5477 5473 5469 5465 5461 5458 5454 5450 5447 5444 5440 5438 5436 5433 5430 5427 5424 5421 5418 5416 5414 5411 5409 5407 5404 5403 5401 5400 5398 5397
5482 5484 5484 5485 5486 5487 5488 5490 5491 5492 5493 5494 5496 5498 5499 5500 5501 5502 5504 5505 5506 5507 5508 5509 5511 5513 5514 5514 5514 5514 5516 5517 5517 5519 5519 5518 5518 5518 5518 5516 5515 5514 5512 5510 5508 5506 5503 5501 5498 5495 5491 5487 5483 5479 5474 5470 5465 5461 5457 5454 5451 5447 5444 5441 5438 5434 5431 5429 5426 5423 5421 5418 5415 5412 5410 5408 5405 5403 5400 5399 5397 5396 5394 5393 5391
5476 5477 5478 5478 5479 5480 5482 5483 5484 5485 5487 5489 5490 5492 5493 5494 5495 5497 5498 5499 5500 5501 5503 5504 5505 5507 5507 5506 5507 5508 5510 5511 5512 5512 5511 5511 5511 5511 5511 5509 5508 5507 5505 5503 5500 5498 5496 5493 5490 5487 5484 5480 5476 5471 5467 5462 5458 5454 5450 5447 5444 5441 5438 5435 5432 5428 5425 5423 5420 5417 5415 5412 5409 5406 5404 5402 5400 5397 5395 5393 5392 5390 5389 5387 5386
5468 5469 5470 5471 5472 5473 5475 5476 5477 5479 5481 5482 5484 5485 5487 5488 5490 5491 5492 5493 5494 5496 5497 5498 5499 5500 5499 5499 5501 5502 5503 5504 5505 5504 5503 5504 5504 5504 5503 5503 5502 5500 5498 5496 5493 5491 5488 5485 5482 5479 5476 5472 5468 5464 5460 5455 5451 5447 5444 5440 5437 5435 5432 5429 5426 5422 5419 5417 5414 5412 5409 5407 5404 5401 5399 5397 5394 5392 5390 5388 5387 5385 5383 5382 5380
5461 5462 5463 5464 5465 5466 5468 5470 5472 5474 5475 5476 5477 5479 5480 5482 5483 5484 5485 5487 5488 5490 5490 5491 5492 5492 5492 5493 5494 5495 5496 5497 5497 5497 5497 5497 5496 5496 5496 5495 5494 5493 5491 5489 5486 5483 5480 5477 5474 5472 5468 5464 5460 5456 5452 5448 5444 5441 5438 5434 5431 5429 5426 5423 5420 5417 5414 5412 5409 5407 5404 5401 5399 5396 5394 5392 5389 5387 5385 5384 5382 5380 5378 5376 5375
5453 5455 5456 5457 5457 5459 5461 5464 5466 5467 5467 5468 5470 5472 5474 5475 5476 5477 5479 5481 5482 5483 5484 5484 5485 5485 5486 5487 5487 5488 5489 5490 5490 5490 5490 5490 5489 5489 5488 5487 5486 5485 5483 5481 5479 5476 5473 5470 5467 5463 5460 5457 5453 5449 5445 5442 5438 5435 5431 5428 5425 5423 5420 5417 5414 5411 5409 5406 5404 5402 5399 5396 5394 5392 5389 5387 5385 5383 5381 5379 5376 5374 5373 5371 5370
5446 5448 5448 5449 5450 5452 5455 5457 5458 5459 5460 5462 5464 5465 5466 5467 5469 5471 5472 5474 5475 5476 5477 5477 5478 5478 5479 5479 5480 5481 5482 5483 5482 5483 5483 5482 5482 5482 5480 5479 5478 5477 5475 5473 5471 5468 5465 5462 5459 5455 5452 5449 5445 5442 5439 5435 5432 5429 5425 5422 5419 5417 5415 5412 5409 5406 5404 5401 5399 5396 5394 5391 5389 5387 5384 5382 5380 5378 5376 5374 5371 5369 5367 5366 5364
5440 5441 5442 5443 5444 5446 5448 5449 5451 5452 5454 5455 5456 5457 5459 5460 5462 5464 5465 5467 5468 5468 5469 5470 5470 5471 5472 5472 5473 5474 5475 5475 5475 5475 5475 5475 5474 5474 5472 5471 5470 5468 5466 5465 5462 5460 5457 5455 5451 5447 5444 5441 5437 5434 5432 5428 5425 5422 5419 5415 5413 5411 5409 5406 5403 5401 5399 5396 5394 5391 5389 5386 5384 5382 5380 5378 5375 5373 5371 5368 5366 5364 5362 5361 5359
5433 5435 5436 5437 5438 5440 5441 5443 5444 5445 5446 5447 5449 5450 5452 5454 5456 5457 5458 5459 5460 5461 5462 5462 5463 5463 5464 5465 5466 5467 5467 5466 5467 5467 5467 5467 5466 5465 5464 5463 5462 5460 5458 5457 5455 5452 5449 5446 5443 5440 5437 5433 5430 5427 5424 5421 5418 5415 5412 5409 5406 5404 5402 5400 5398 5396 5393 5391 5389 5386 5384 5382 5379 5377 5374 5372 5370 5368 5366 5363 5361 5359 5357 5356 5354
5426 5427 5429 5430 5432 5433 5434 5435 5436 5437 5439 5440 5441 5443 5445 5446 5448 5449 5450 5451 5452 5453 5454 5455 5455 5456 5457 5457 5458 5458 5458 5458 5458 5458 5458 5458 5458 5457 5456 5455 5454 5452 5450 5449 5447 5445 5442 5438 5435 5432 5429 5426 5423 5421 5418 5414 5412 5409 5406 5403 5400 5398 5396 5395 5393 5391 5388 5386 5384 5382 5379 5377 5374 5372 5370 5367 5365 5363 5360 5358 5356 5354 5353 5351 5350
5418 5419 5421 5422 5424 5425 5426 5427 5428 5429 5431 5432 5433 5435 5437 5439 5440 5441 5442 5443 5444 5445 5446 5447 5447 5448 5448 5449 5449 5450 5450 5450 5450 5450 5450 5450 5449 5448 5447 5447 5445 5444 5442 5440 5439 5437 5434 5430 5427 5424 5421 5419 5416 5414 5411 5408 5405 5403 5400 5398 5395 5393 5390 5389 5388 5386 5383 5381 5379 5377 5375 5373 5370 5368 5365 5363 5360 5358 5356 5354 5352 5350 5348 5347 5345
5410 5411 5412 5413 5415 5416 5417 5418 5419 5421 5423 5424 5426 5427 5429 5430 5432 5433 5434 5435 5436 5437 5438 5439 5439 5439 5440 5440 5440 5441 5441 5441 5441 5441 5441 5441 5440 5439 5439 5438 5437 5435 5434 5432 5430 5428 5426 5423 5420 5417 5414 5411 5409 5407 5405 5402 5399 5397 5394 5392 5390 5388 5386 5384 5383 5381 5379 5377 5375 5372 5370 5368 5365 5363 5361 5358 5356 5354 5352 5350 5347 5346 5344 5342 5341
5401 5402 5403 5404 5405 5407 5408 5410 5411 5413 5415 5415 5417 5418 5420 5422 5423 5425 5426 5427 5428 5429 5430 5430 5430 5431 5431 5431 5431 5432 5432 5432 5432 5432 5432 5431 5431 5430 5430 5429 5428 5427 5425 5424 5422 5420 5418 5415 5412 5409 5407 5404 5402 5400 5398 5396 5393 5391 5389 5387 5385 5383 5381 5380 5378 5376 5374 5372 5370 5367 5365 5363 5361 5358 5356 5354 5351 5350 5348 5345 5343 5341 5339 5338 5336
5393 5394 5395 5396 5397 5398 5399 5400 5402 5404 5405 5406 5408 5410 5411 5413 5415 5416 5417 5418 5419 5420 5421 5421 5421 5422 5422 5422 5423 5423 5424 5424 5424 5423 5422 5422 5422 5422 5421 5420 5419 5418 5417 5415 5414 5412 5410 5407 5404 5402 5400 5398 5396 5393 5391 5389 5387 5385 5383 5382 5380 5378 5376 5375 5373 5371 5369 5367 5365 5362 5360 5358 5355 5353 5351 5349 5347 5345 5343 5341 5339 5337 5335 5334 5332
5385 5386 5387 5388 5389 5390 5391 5392 5394 5395 5396 5398 5400 5402 5403 5405 5406 5408 5408 5410 5411 5411 5412 5412 5412 5412 5413 5413 5414 5415 5415 5415 5414 5414 5414 5413 5413 5413 5413 5412 5411 5410 5409 5407 5406 5404 5402 5399 5397 5394 5393 5391 5389 5387 5385 5383 5381 5380 5378 5377 5375 5373 5371 5369 5367 5365 5363 5361 5359 5357 5354 5352 5350 5348 5346 5344 5342 5340 5338 5336 5335 5333 5331 5330 5328